Location: Aula-Vintri
(58.3875°N, 22.4322°E)
Time: 10:18:18
(UTC+00:00)

Cosmos 1703 - Pass Details

Date: 13 October 2019
Orbit: 523 x 542 km, 82.5° (Epoch: 20 November)

Event Time Altitude Azimuth Distance (km) Brightness Sun altitude
Rises 16:14:22 0° 350° (N) 2,716 6.9 -6.4°
Reaches altitude 10° 16:16:45 10° 2° (N) 1,817 5.9 -6.7°
Maximum altitude 16:20:19 30° 65° (ENE) 981 4.1 -7.2°
Drops below altitude 10° 16:23:50 10° 128° (SE) 1,795 5.5 -7.6°
Sets 16:26:10 0° 139° (SE) 2,678 6.5 -7.9°
